Time,TemperatureF,DewpointF,PressureIn,WindDirection,WindDirectionDegrees,WindSpeedMPH,WindSpeedGustMPH,Humidity,HourlyPrecipIn,Conditions,Clouds,dailyrainin,SolarRadiationWatts/m^2,SoftwareType,DateUTC
2013-07-03 00:00:00,74.9,59.6,29.89,SW,232,0.0,2.0,59,0.00,,---,0.00,0.00,VWS V14.01,2013-07-03 07:00:00,
2013-07-03 00:05:00,74.7,59.9,29.89,SW,232,1.0,2.0,60,0.00,,---,0.00,0.00,VWS V14.01,2013-07-03 07:05:00,
2013-07-03 00:10:00,74.5,59.7,29.89,SW,232,0.0,2.0,60,0.00,,---,0.00,0.00,VWS V14.01,2013-07-03 07:10:00,
2013-07-03 00:15:00,74.2,59.9,29.89,SW,232,0.0,2.0,61,0.00,,---,0.00,0.00,VWS V14.01,2013-07-03 07:15:00,
2013-07-03 00:16:00,74.2,59.9,29.89,SW,232,0.0,2.0,61,0.00,,---,0.00,0.00,VWS V14.01,2013-07-03 07:16:00,
2013-07-03 00:21:00,74.1,59.8,29.89,SW,232,0.0,2.0,61,0.00,,---,0.00,0.00,VWS V14.01,2013-07-03 07:21:00,
2013-07-03 00:26:00,73.9,60.1,29.89,SW,232,1.0,2.0,62,0.00,,---,0.00,0.00,VWS V14.01,2013-07-03 07:26:00,
2013-07-03 00:31:00,73.8,60.4,29.89,SW,232,1.0,1.0,63,0.00,,---,0.00,0.00,VWS V14.01,2013-07-03 07:31:00,
2013-07-03 00:36:00,73.7,60.3,29.89,SW,232,0.0,2.0,63,0.00,,---,0.00,0.00,VWS V14.01,2013-07-03 07:36:00,
2013-07-03 00:38:00,73.6,60.2,29.89,SW,232,1.0,2.0,63,0.00,,---,0.00,0.00,VWS V14.01,2013-07-03 07:38:00,
2013-07-03 00:43:00,73.4,60.0,29.88,SW,232,0.0,2.0,63,0.00,,---,0.00,0.00,VWS V14.01,2013-07-03 07:43:00,
2013-07-03 00:48:00,73.3,60.4,29.89,SW,232,0.0,2.0,64,0.00,,---,0.00,0.00,VWS V14.01,2013-07-03 07:48:00,
2013-07-03 00:50:00,73.3,60.0,29.89,SW,232,0.0,2.0,63,0.00,,---,0.00,0.00,VWS V14.01,2013-07-03 07:50:00,
2013-07-03 00:55:00,73.0,60.1,29.89,SW,232,0.0,2.0,64,0.00,,---,0.00,0.00,VWS V14.01,2013-07-03 07:55:00,
2013-07-03 01:01:00,72.8,59.5,29.88,SW,232,0.0,0.0,63,0.00,,---,0.00,0.00,VWS V14.01,2013-07-03 08:01:00,
2013-07-03 01:02:00,72.7,59.4,29.89,SW,232,0.0,0.0,63,0.00,,---,0.00,0.00,VWS V14.01,2013-07-03 08:02:00,
2013-07-03 01:06:00,72.3,59.5,29.88,SW,232,0.0,0.0,64,0.00,,---,0.00,0.00,VWS V14.01,2013-07-03 08:06:00,
2013-07-03 01:09:00,71.9,59.5,29.89,SW,232,0.0,0.0,65,0.00,,---,0.00,0.00,VWS V14.01,2013-07-03 08:09:00,
2013-07-03 01:14:00,71.4,59.9,29.89,SW,232,0.0,0.0,67,0.00,,---,0.00,0.00,VWS V14.01,2013-07-03 08:14:00,
2013-07-03 01:18:00,71.0,59.9,29.89,SW,232,0.0,0.0,68,0.00,,---,0.00,0.00,VWS V14.01,2013-07-03 08:18:00,
2013-07-03 01:23:00,70.6,59.5,29.89,SW,232,0.0,0.0,68,0.00,,---,0.00,0.00,VWS V14.01,2013-07-03 08:23:00,
2013-07-03 01:28:00,70.4,59.8,29.89,SW,232,0.0,1.0,69,0.00,,---,0.00,0.00,VWS V14.01,2013-07-03 08:28:00,
2013-07-03 01:33:00,70.2,59.6,29.89,WSW,240,0.0,0.0,69,0.00,,---,0.00,0.00,VWS V14.01,2013-07-03 08:33:00,
2013-07-03 01:38:00,70.1,59.1,29.89,West,279,1.0,3.0,68,0.00,,---,0.00,0.00,VWS V14.01,2013-07-03 08:38:00,
2013-07-03 01:39:00,70.1,58.7,29.89,West,279,2.0,3.0,67,0.00,,---,0.00,0.00,VWS V14.01,2013-07-03 08:39:00,
2013-07-03 01:44:00,70.0,58.1,29.89,West,273,3.0,3.0,66,0.00,,---,0.00,0.00,VWS V14.01,2013-07-03 08:44:00,
2013-07-03 01:45:00,70.0,58.1,29.89,WNW,286,2.0,3.0,66,0.00,,---,0.00,0.00,VWS V14.01,2013-07-03 08:45:00,
2013-07-03 01:50:00,70.0,58.1,29.89,West,281,1.0,4.0,66,0.00,,---,0.00,0.00,VWS V14.01,2013-07-03 08:50:00,
2013-07-03 01:54:00,69.8,57.9,29.89,West,278,4.0,4.0,66,0.00,,---,0.00,0.00,VWS V14.01,2013-07-03 08:54:00,
2013-07-03 01:56:00,69.8,57.9,29.89,WNW,300,2.0,4.0,66,0.00,,---,0.00,0.00,VWS V14.01,2013-07-03 08:56:00,
2013-07-03 02:01:00,69.8,57.5,29.89,WNW,286,2.0,2.0,65,0.00,,---,0.00,0.00,VWS V14.01,2013-07-03 09:01:00,
2013-07-03 02:06:00,69.8,57.5,29.89,WNW,286,0.0,2.0,65,0.00,,---,0.00,0.00,VWS V14.01,2013-07-03 09:06:00,
2013-07-03 02:11:00,69.7,57.4,29.89,WNW,286,0.0,2.0,65,0.00,,---,0.00,0.00,VWS V14.01,2013-07-03 09:11:00,
2013-07-03 02:17:00,69.5,57.2,29.88,WNW,286,0.0,2.0,65,0.00,,---,0.00,0.00,VWS V14.01,2013-07-03 09:17:00,
2013-07-03 02:22:00,69.3,57.0,29.88,West,281,1.0,3.0,65,0.00,,---,0.00,0.00,VWS V14.01,2013-07-03 09:22:00,
2013-07-03 02:27:00,69.2,57.0,29.88,WNW,282,1.0,3.0,65,0.00,,---,0.00,0.00,VWS V14.01,2013-07-03 09:27:00,
2013-07-03 02:32:00,69.0,57.2,29.88,WNW,282,0.0,1.0,66,0.00,,---,0.00,0.00,VWS V14.01,2013-07-03 09:32:00,
2013-07-03 02:37:00,69.0,57.2,29.88,WNW,282,0.0,1.0,66,0.00,,---,0.00,0.00,VWS V14.01,2013-07-03 09:37:00,
2013-07-03 02:41:00,68.9,57.9,29.88,NNE,19,0.0,2.0,68,0.00,,---,0.00,0.00,VWS V14.01,2013-07-03 09:41:00,
2013-07-03 02:46:00,68.8,57.4,29.88,NW,306,0.0,2.0,67,0.00,,---,0.00,0.00,VWS V14.01,2013-07-03 09:46:00,
2013-07-03 02:49:00,68.7,57.3,29.88,NW,306,0.0,2.0,67,0.00,,---,0.00,0.00,VWS V14.01,2013-07-03 09:49:00,
2013-07-03 02:50:00,68.7,57.3,29.88,NW,315,0.0,2.0,67,0.00,,---,0.00,0.00,VWS V14.01,2013-07-03 09:50:00,
2013-07-03 02:55:00,68.5,57.1,29.88,NW,315,0.0,2.0,67,0.00,,---,0.00,0.00,VWS V14.01,2013-07-03 09:55:00,
2013-07-03 03:00:00,68.2,57.2,29.88,WNW,284,0.0,3.0,68,0.00,,---,0.00,0.00,VWS V14.01,2013-07-03 10:00:00,
2013-07-03 03:04:00,68.0,57.1,29.88,WNW,284,0.0,2.0,68,0.00,,---,0.00,0.00,VWS V14.01,2013-07-03 10:04:00,
2013-07-03 03:05:00,68.0,57.1,29.88,NW,306,0.0,2.0,68,0.00,,---,0.00,0.00,VWS V14.01,2013-07-03 10:05:00,
2013-07-03 03:10:00,67.9,57.4,29.88,NW,319,0.0,2.0,69,0.00,,---,0.00,0.00,VWS V14.01,2013-07-03 10:10:00,
2013-07-03 03:15:00,68.0,57.9,29.88,West,265,1.0,2.0,70,0.00,,---,0.00,0.00,VWS V14.01,2013-07-03 10:15:00,
2013-07-03 03:20:00,68.0,57.5,29.88,SSW,209,0.0,2.0,69,0.00,,---,0.00,0.00,VWS V14.01,2013-07-03 10:20:00,
2013-07-03 03:25:00,67.8,56.9,29.89,SSW,209,0.0,2.0,68,0.00,,---,0.00,0.00,VWS V14.01,2013-07-03 10:25:00,
2013-07-03 03:30:00,67.6,56.7,29.89,SSW,202,0.0,2.0,68,0.00,,---,0.00,0.00,VWS V14.01,2013-07-03 10:30:00,
2013-07-03 03:31:00,67.6,56.7,29.89,SSW,202,0.0,0.0,68,0.00,,---,0.00,0.00,VWS V14.01,2013-07-03 10:31:00,
2013-07-03 03:36:00,67.2,56.7,29.89,West,262,0.0,2.0,69,0.00,,---,0.00,0.00,VWS V14.01,2013-07-03 10:36:00,
2013-07-03 03:41:00,66.8,56.3,29.89,West,262,0.0,2.0,69,0.00,,---,0.00,0.00,VWS V14.01,2013-07-03 10:41:00,
2013-07-03 03:46:00,66.5,56.4,29.89,West,262,0.0,2.0,70,0.00,,---,0.00,0.00,VWS V14.01,2013-07-03 10:46:00,
2013-07-03 03:49:00,66.4,56.7,29.89,West,262,1.0,2.0,71,0.00,,---,0.00,0.00,VWS V14.01,2013-07-03 10:49:00,
2013-07-03 03:54:00,66.2,56.5,29.88,West,262,0.0,2.0,71,0.00,,---,0.00,0.00,VWS V14.01,2013-07-03 10:54:00,
2013-07-03 03:55:00,66.2,56.5,29.88,West,262,0.0,2.0,71,0.00,,---,0.00,0.00,VWS V14.01,2013-07-03 10:55:00,
2013-07-03 03:57:00,66.2,56.9,29.89,West,262,0.0,2.0,72,0.00,,---,0.00,0.00,VWS V14.01,2013-07-03 10:57:00,
2013-07-03 04:02:00,66.1,56.4,29.89,West,270,0.0,0.0,71,0.00,,---,0.00,0.00,VWS V14.01,2013-07-03 11:02:00,
2013-07-03 04:07:00,66.2,56.9,29.89,West,270,0.0,1.0,72,0.00,,---,0.00,0.00,VWS V14.01,2013-07-03 11:07:00,
2013-07-03 04:09:00,66.2,56.9,29.89,West,270,0.0,1.0,72,0.00,,---,0.00,0.00,VWS V14.01,2013-07-03 11:09:00,
2013-07-03 04:14:00,66.1,56.8,29.89,NW,305,1.0,3.0,72,0.00,,---,0.00,0.00,VWS V14.01,2013-07-03 11:14:00,
2013-07-03 04:19:00,66.1,56.8,29.89,NW,305,0.0,3.0,72,0.00,,---,0.00,0.00,VWS V14.01,2013-07-03 11:19:00,
2013-07-03 04:23:00,65.9,57.0,29.89,NW,305,0.0,3.0,73,0.00,,---,0.00,0.00,VWS V14.01,2013-07-03 11:23:00,
2013-07-03 04:25:00,65.8,56.5,29.89,NW,305,0.0,3.0,72,0.00,,---,0.00,0.00,VWS V14.01,2013-07-03 11:25:00,
2013-07-03 04:30:00,65.4,56.5,29.89,NW,305,1.0,3.0,73,0.00,,---,0.00,0.00,VWS V14.01,2013-07-03 11:30:00,
2013-07-03 04:35:00,65.2,56.7,29.89,NW,305,0.0,1.0,74,0.00,,---,0.00,0.00,VWS V14.01,2013-07-03 11:35:00,
2013-07-03 04:40:00,65.0,56.5,29.89,NW,305,1.0,2.0,74,0.00,,---,0.00,0.00,VWS V14.01,2013-07-03 11:40:00,
2013-07-03 04:45:00,64.9,56.8,29.89,NW,305,1.0,2.0,75,0.00,,---,0.00,0.00,VWS V14.01,2013-07-03 11:45:00,
2013-07-03 04:50:00,64.9,56.8,29.89,NW,305,1.0,2.0,75,0.00,,---,0.00,0.00,VWS V14.01,2013-07-03 11:50:00,
2013-07-03 04:55:00,64.9,56.8,29.89,NW,315,0.0,2.0,75,0.00,,---,0.00,0.00,VWS V14.01,2013-07-03 11:55:00,
2013-07-03 04:59:00,65.1,57.4,29.89,NW,314,0.0,2.0,76,0.00,,---,0.00,0.00,VWS V14.01,2013-07-03 11:59:00,
2013-07-03 05:02:00,65.2,58.2,29.89,NW,316,1.0,1.0,78,0.00,,---,0.00,0.00,VWS V14.01,2013-07-03 12:02:00,
2013-07-03 05:08:00,65.6,59.6,29.89,NW,317,2.0,4.0,81,0.00,,---,0.00,0.00,VWS V14.01,2013-07-03 12:08:00,
2013-07-03 05:12:00,66.0,59.7,29.89,NW,307,3.0,4.0,80,0.00,,---,0.00,0.00,VWS V14.01,2013-07-03 12:12:00,
2013-07-03 05:16:00,66.2,59.9,29.89,WNW,301,1.0,4.0,80,0.00,,---,0.00,0.00,VWS V14.01,2013-07-03 12:16:00,
2013-07-03 05:20:00,66.4,59.0,29.89,SW,215,1.0,4.0,77,0.00,,---,0.00,0.00,VWS V14.01,2013-07-03 12:20:00,
2013-07-03 05:25:00,66.2,57.7,29.89,SW,215,0.0,4.0,74,0.00,,---,0.00,0.00,VWS V14.01,2013-07-03 12:25:00,
2013-07-03 05:30:00,65.9,57.4,29.89,SW,225,0.0,4.0,74,0.00,,---,0.00,0.00,VWS V14.01,2013-07-03 12:30:00,
2013-07-03 05:35:00,65.5,57.0,29.89,West,275,0.0,1.0,74,0.00,,---,0.00,5.00,VWS V14.01,2013-07-03 12:35:00,
2013-07-03 05:40:00,65.0,57.6,29.90,West,275,0.0,1.0,77,0.00,,---,0.00,7.00,VWS V14.01,2013-07-03 12:40:00,
2013-07-03 05:45:00,64.5,58.2,29.89,West,275,0.0,1.0,80,0.00,,---,0.00,9.00,VWS V14.01,2013-07-03 12:45:00,
2013-07-03 05:46:00,64.4,58.1,29.89,West,275,0.0,1.0,80,0.00,,---,0.00,11.00,VWS V14.01,2013-07-03 12:46:00,
2013-07-03 05:51:00,64.2,58.3,29.89,West,275,0.0,1.0,81,0.00,,---,0.00,14.00,VWS V14.01,2013-07-03 12:51:00,
2013-07-03 05:56:00,64.1,58.5,29.90,West,275,0.0,1.0,82,0.00,,---,0.00,19.00,VWS V14.01,2013-07-03 12:56:00,
2013-07-03 06:01:00,64.2,58.3,29.90,West,275,0.0,0.0,81,0.00,,---,0.00,23.00,VWS V14.01,2013-07-03 13:01:00,
2013-07-03 06:07:00,64.2,57.9,29.90,West,275,0.0,0.0,80,0.00,,---,0.00,28.00,VWS V14.01,2013-07-03 13:07:00,
2013-07-03 06:12:00,64.2,57.6,29.89,West,275,1.0,2.0,79,0.00,,---,0.00,33.00,VWS V14.01,2013-07-03 13:12:00,
2013-07-03 06:17:00,64.3,58.0,29.90,West,275,0.0,2.0,80,0.00,,---,0.00,42.00,VWS V14.01,2013-07-03 13:17:00,
2013-07-03 06:22:00,64.4,58.1,29.90,West,275,0.0,2.0,80,0.00,,---,0.00,51.00,VWS V14.01,2013-07-03 13:22:00,
2013-07-03 06:25:00,64.4,58.1,29.90,West,275,0.0,2.0,80,0.00,,---,0.00,56.00,VWS V14.01,2013-07-03 13:25:00,
2013-07-03 06:30:00,64.5,58.2,29.90,West,275,0.0,2.0,80,0.00,,---,0.00,60.00,VWS V14.01,2013-07-03 13:30:00,
2013-07-03 06:35:00,64.6,58.0,29.90,West,275,0.0,0.0,79,0.00,,---,0.00,56.00,VWS V14.01,2013-07-03 13:35:00,
2013-07-03 06:38:00,64.7,58.0,29.90,West,275,0.0,0.0,79,0.00,,---,0.00,58.00,VWS V14.01,2013-07-03 13:38:00,
2013-07-03 06:43:00,64.8,58.1,29.90,West,275,0.0,0.0,79,0.00,,---,0.00,60.00,VWS V14.01,2013-07-03 13:43:00,
2013-07-03 06:48:00,64.9,58.2,29.90,West,275,0.0,0.0,79,0.00,,---,0.00,63.00,VWS V14.01,2013-07-03 13:48:00,
2013-07-03 06:53:00,65.1,58.4,29.90,West,275,0.0,0.0,79,0.00,,---,0.00,63.00,VWS V14.01,2013-07-03 13:53:00,
2013-07-03 06:58:00,65.3,58.6,29.90,West,275,0.0,1.0,79,0.00,,---,0.00,63.00,VWS V14.01,2013-07-03 13:58:00,
2013-07-03 07:03:00,65.4,59.1,29.90,West,275,0.0,0.0,80,0.00,,---,0.00,69.00,VWS V14.01,2013-07-03 14:03:00,
2013-07-03 07:06:00,65.4,59.1,29.90,NE,51,0.0,1.0,80,0.00,,---,0.00,74.00,VWS V14.01,2013-07-03 14:06:00,
2013-07-03 07:09:00,65.5,58.8,29.90,NE,40,0.0,1.0,79,0.00,,---,0.00,91.00,VWS V14.01,2013-07-03 14:09:00,
2013-07-03 07:14:00,65.7,59.0,29.90,SSW,200,0.0,1.0,79,0.00,,---,0.00,77.00,VWS V14.01,2013-07-03 14:14:00,
2013-07-03 07:17:00,65.9,59.2,29.90,SSW,200,0.0,1.0,79,0.00,,---,0.00,77.00,VWS V14.01,2013-07-03 14:17:00,
2013-07-03 07:22:00,66.1,59.0,29.90,SSW,200,0.0,1.0,78,0.00,,---,0.00,77.00,VWS V14.01,2013-07-03 14:22:00,
2013-07-03 07:27:00,66.2,59.2,29.90,SSW,200,0.0,1.0,78,0.00,,---,0.00,70.00,VWS V14.01,2013-07-03 14:27:00,
2013-07-03 07:31:00,66.3,59.6,29.90,SSW,200,0.0,0.0,79,0.00,,---,0.00,67.00,VWS V14.01,2013-07-03 14:31:00,
2013-07-03 07:36:00,66.4,59.7,29.91,SSW,200,0.0,0.0,79,0.00,,---,0.00,62.00,VWS V14.01,2013-07-03 14:36:00,
2013-07-03 07:38:00,66.4,59.7,29.91,SSW,200,0.0,0.0,79,0.00,,---,0.00,62.00,VWS V14.01,2013-07-03 14:38:00,
2013-07-03 07:41:00,66.4,59.7,29.90,SSW,200,0.0,0.0,79,0.00,,---,0.00,60.00,VWS V14.01,2013-07-03 14:41:00,
2013-07-03 07:46:00,66.5,59.8,29.90,NNE,17,1.0,1.0,79,0.00,,---,0.00,81.00,VWS V14.01,2013-07-03 14:46:00,
2013-07-03 07:52:00,66.4,59.3,29.90,NNE,30,0.0,1.0,78,0.00,,---,0.00,63.00,VWS V14.01,2013-07-03 14:52:00,
2013-07-03 07:57:00,66.5,59.4,29.90,NNE,19,0.0,2.0,78,0.00,,---,0.00,97.00,VWS V14.01,2013-07-03 14:57:00,
2013-07-03 07:58:00,66.5,59.4,29.90,NNE,27,0.0,2.0,78,0.00,,---,0.00,84.00,VWS V14.01,2013-07-03 14:58:00,
2013-07-03 08:03:00,66.6,59.5,29.90,ENE,71,0.0,0.0,78,0.00,,---,0.00,67.00,VWS V14.01,2013-07-03 15:03:00,
2013-07-03 08:08:00,66.7,59.6,29.90,ENE,74,0.0,1.0,78,0.00,,---,0.00,67.00,VWS V14.01,2013-07-03 15:08:00,
2013-07-03 08:13:00,66.9,60.2,29.90,NNE,16,0.0,2.0,79,0.00,,---,0.00,153.00,VWS V14.01,2013-07-03 15:13:00,
2013-07-03 08:15:00,67.0,59.9,29.90,NNE,25,0.0,2.0,78,0.00,,---,0.00,192.00,VWS V14.01,2013-07-03 15:15:00,
2013-07-03 08:20:00,67.4,60.3,29.90,NE,42,0.0,2.0,78,0.00,,---,0.00,350.00,VWS V14.01,2013-07-03 15:20:00,
2013-07-03 08:25:00,67.8,60.0,29.90,ESE,123,0.0,2.0,76,0.00,,---,0.00,390.00,VWS V14.01,2013-07-03 15:25:00,
2013-07-03 08:28:00,68.1,59.9,29.90,East,100,1.0,2.0,75,0.00,,---,0.00,404.00,VWS V14.01,2013-07-03 15:28:00,
2013-07-03 08:33:00,68.4,60.2,29.90,ESE,117,0.0,2.0,75,0.00,,---,0.00,418.00,VWS V14.01,2013-07-03 15:33:00,
2013-07-03 08:38:00,68.8,60.2,29.90,East,98,0.0,2.0,74,0.00,,---,0.00,434.00,VWS V14.01,2013-07-03 15:38:00,
2013-07-03 08:40:00,69.0,60.4,29.90,East,98,1.0,2.0,74,0.00,,---,0.00,439.00,VWS V14.01,2013-07-03 15:40:00,
2013-07-03 08:45:00,69.3,60.3,29.90,North,5,0.0,2.0,73,0.00,,---,0.00,459.00,VWS V14.01,2013-07-03 15:45:00,
2013-07-03 08:50:00,69.8,60.4,29.90,ENE,69,0.0,2.0,72,0.00,,---,0.00,473.00,VWS V14.01,2013-07-03 15:50:00,
2013-07-03 08:52:00,70.0,60.2,29.90,ENE,69,0.0,2.0,71,0.00,,---,0.00,471.00,VWS V14.01,2013-07-03 15:52:00,
2013-07-03 08:57:00,70.4,60.2,29.90,ESE,111,0.0,2.0,70,0.00,,---,0.00,109.00,VWS V14.01,2013-07-03 15:57:00,
2013-07-03 09:02:00,70.7,60.5,29.90,North,360,0.0,0.0,70,0.00,,---,0.00,512.00,VWS V14.01,2013-07-03 16:02:00,
2013-07-03 09:07:00,71.0,61.1,29.90,NNW,342,0.0,2.0,71,0.00,,---,0.00,441.00,VWS V14.01,2013-07-03 16:07:00,
2013-07-03 09:12:00,71.3,60.2,29.90,NNE,29,3.0,3.0,68,0.00,,---,0.00,482.00,VWS V14.01,2013-07-03 16:12:00,
2013-07-03 09:17:00,71.6,59.2,29.90,NNE,30,0.0,3.0,65,0.00,,---,0.00,548.00,VWS V14.01,2013-07-03 16:17:00,
2013-07-03 09:22:00,71.8,58.1,29.90,ESE,103,0.0,3.0,62,0.00,,---,0.00,571.00,VWS V14.01,2013-07-03 16:22:00,
2013-07-03 09:28:00,72.2,58.0,29.89,SSE,148,0.0,3.0,61,0.00,,---,0.00,587.00,VWS V14.01,2013-07-03 16:28:00,
2013-07-03 09:33:00,72.8,58.6,29.89,SSE,148,0.0,0.0,61,0.00,,---,0.00,594.00,VWS V14.01,2013-07-03 16:33:00,
2013-07-03 09:38:00,73.0,59.2,29.89,ESE,104,0.0,2.0,62,0.00,,---,0.00,613.00,VWS V14.01,2013-07-03 16:38:00,
2013-07-03 09:43:00,73.3,58.6,29.89,South,181,0.0,2.0,60,0.00,,---,0.00,624.00,VWS V14.01,2013-07-03 16:43:00,
2013-07-03 09:48:00,73.7,59.4,29.88,SE,146,0.0,3.0,61,0.00,,---,0.00,638.00,VWS V14.01,2013-07-03 16:48:00,
2013-07-03 09:53:00,74.1,59.8,29.89,East,90,0.0,3.0,61,0.00,,---,0.00,650.00,VWS V14.01,2013-07-03 16:53:00,
2013-07-03 09:58:00,74.4,60.1,29.88,East,90,1.0,3.0,61,0.00,,---,0.00,663.00,VWS V14.01,2013-07-03 16:58:00,
2013-07-03 10:03:00,74.6,59.8,29.88,East,96,0.0,2.0,60,0.00,,---,0.00,675.00,VWS V14.01,2013-07-03 17:03:00,
2013-07-03 10:08:00,75.1,59.8,29.88,ESE,123,1.0,2.0,59,0.00,,---,0.00,682.00,VWS V14.01,2013-07-03 17:08:00,
2013-07-03 10:13:00,75.6,58.8,29.88,SE,146,0.0,3.0,56,0.00,,---,0.00,693.00,VWS V14.01,2013-07-03 17:13:00,
2013-07-03 10:19:00,76.0,60.7,29.88,SSE,148,0.0,3.0,59,0.00,,---,0.00,707.00,VWS V14.01,2013-07-03 17:19:00,
2013-07-03 10:24:00,76.2,62.7,29.88,SE,128,0.0,3.0,63,0.00,,---,0.00,719.00,VWS V14.01,2013-07-03 17:24:00,
2013-07-03 10:29:00,76.6,60.2,29.88,SSE,148,1.0,3.0,57,0.00,,---,0.00,731.00,VWS V14.01,2013-07-03 17:29:00,
2013-07-03 10:34:00,76.9,61.5,29.88,SE,142,0.0,1.0,59,0.00,,---,0.00,740.00,VWS V14.01,2013-07-03 17:34:00,
2013-07-03 10:39:00,77.6,61.2,29.88,WSW,255,3.0,5.0,57,0.00,,---,0.00,751.00,VWS V14.01,2013-07-03 17:39:00,
2013-07-03 10:45:00,78.1,60.6,29.88,WSW,243,5.0,7.0,55,0.00,,---,0.00,759.00,VWS V14.01,2013-07-03 17:45:00,
2013-07-03 10:50:00,78.7,60.2,29.88,NE,48,1.0,7.0,53,0.00,,---,0.00,763.00,VWS V14.01,2013-07-03 17:50:00,
2013-07-03 10:55:00,79.2,61.7,29.88,SW,227,0.0,7.0,55,0.00,,---,0.00,777.00,VWS V14.01,2013-07-03 17:55:00,
2013-07-03 11:00:00,79.4,61.3,29.87,East,86,1.0,7.0,54,0.00,,---,0.00,788.00,VWS V14.01,2013-07-03 18:00:00,
2013-07-03 11:05:00,79.9,59.0,29.87,SW,220,1.0,4.0,49,0.00,,---,0.00,793.00,VWS V14.01,2013-07-03 18:05:00,
2013-07-03 11:10:00,80.6,60.3,29.87,WSW,241,2.0,7.0,50,0.00,,---,0.00,807.00,VWS V14.01,2013-07-03 18:10:00,
2013-07-03 11:15:00,81.2,60.8,29.87,South,185,1.0,7.0,50,0.00,,---,0.00,817.00,VWS V14.01,2013-07-03 18:15:00,
2013-07-03 11:20:00,81.4,59.8,29.87,SW,228,2.0,7.0,48,0.00,,---,0.00,830.00,VWS V14.01,2013-07-03 18:20:00,
2013-07-03 11:25:00,81.8,59.0,29.87,SSE,157,2.0,7.0,46,0.00,,---,0.00,844.00,VWS V14.01,2013-07-03 18:25:00,
2013-07-03 11:30:00,82.1,59.9,29.87,South,181,2.0,7.0,47,0.00,,---,0.00,840.00,VWS V14.01,2013-07-03 18:30:00,
2013-07-03 11:35:00,82.3,58.9,29.86,SSE,165,1.0,4.0,45,0.00,,---,0.00,853.00,VWS V14.01,2013-07-03 18:35:00,
2013-07-03 11:40:00,82.4,59.0,29.86,SE,139,0.0,4.0,45,0.00,,---,0.00,854.00,VWS V14.01,2013-07-03 18:40:00,
2013-07-03 11:45:00,82.7,58.6,29.86,SW,229,2.0,5.0,44,0.00,,---,0.00,865.00,VWS V14.01,2013-07-03 18:45:00,
2013-07-03 11:51:00,83.1,59.6,29.86,SSE,149,1.0,5.0,45,0.00,,---,0.00,874.00,VWS V14.01,2013-07-03 18:51:00,
2013-07-03 11:56:00,83.5,59.3,29.86,West,267,4.0,7.0,44,0.00,,---,0.00,881.00,VWS V14.01,2013-07-03 18:56:00,
2013-07-03 12:01:00,83.9,59.7,29.86,South,189,2.0,5.0,44,0.00,,---,0.00,886.00,VWS V14.01,2013-07-03 19:01:00,
2013-07-03 12:06:00,84.3,60.0,29.85,WSW,237,1.0,5.0,44,0.00,,---,0.00,888.00,VWS V14.01,2013-07-03 19:06:00,
2013-07-03 12:11:00,84.9,58.6,29.85,South,178,2.0,6.0,41,0.00,,---,0.00,893.00,VWS V14.01,2013-07-03 19:11:00,
2013-07-03 12:16:00,85.5,58.5,29.85,South,189,5.0,7.0,40,0.00,,---,0.00,896.00,VWS V14.01,2013-07-03 19:16:00,
2013-07-03 12:21:00,85.8,60.7,29.85,SSE,153,1.0,7.0,43,0.00,,---,0.00,904.00,VWS V14.01,2013-07-03 19:21:00,
2013-07-03 12:26:00,85.9,59.5,29.85,ENE,74,0.0,7.0,41,0.00,,---,0.00,905.00,VWS V14.01,2013-07-03 19:26:00,
2013-07-03 12:31:00,86.2,58.4,29.85,SW,214,3.0,7.0,39,0.00,,---,0.00,907.00,VWS V14.01,2013-07-03 19:31:00,
2013-07-03 12:36:00,86.6,58.7,29.85,SSE,159,5.0,7.0,39,0.00,,---,0.00,911.00,VWS V14.01,2013-07-03 19:36:00,
2013-07-03 12:42:00,87.1,57.7,29.85,SW,224,1.0,7.0,37,0.00,,---,0.00,916.00,VWS V14.01,2013-07-03 19:42:00,
2013-07-03 12:47:00,87.5,58.0,29.85,SW,224,2.0,8.0,37,0.00,,---,0.00,916.00,VWS V14.01,2013-07-03 19:47:00,
2013-07-03 12:52:00,87.7,59.7,29.85,SSW,206,3.0,8.0,39,0.00,,---,0.00,919.00,VWS V14.01,2013-07-03 19:52:00,
2013-07-03 12:57:00,87.8,58.3,29.84,SSW,210,4.0,10.0,37,0.00,,---,0.00,919.00,VWS V14.01,2013-07-03 19:57:00,
2013-07-03 13:02:00,87.9,57.6,29.85,West,265,4.0,6.0,36,0.00,,---,0.00,916.00,VWS V14.01,2013-07-03 20:02:00,
2013-07-03 13:07:00,88.2,57.1,29.85,SSE,157,6.0,7.0,35,0.00,,---,0.00,918.00,VWS V14.01,2013-07-03 20:07:00,
2013-07-03 13:12:00,88.4,56.5,29.84,WSW,252,0.0,7.0,34,0.00,,---,0.00,916.00,VWS V14.01,2013-07-03 20:12:00,
2013-07-03 13:17:00,88.5,58.2,29.85,South,178,7.0,7.0,36,0.00,,---,0.00,918.00,VWS V14.01,2013-07-03 20:17:00,
2013-07-03 13:22:00,88.6,55.8,29.84,South,172,3.0,7.0,33,0.00,,---,0.00,919.00,VWS V14.01,2013-07-03 20:22:00,
2013-07-03 13:27:00,88.9,60.8,29.84,SSW,213,4.0,8.0,39,0.00,,---,0.00,918.00,VWS V14.01,2013-07-03 20:27:00,
2013-07-03 13:32:00,89.3,56.5,29.84,WSW,246,7.0,7.0,33,0.00,,---,0.00,916.00,VWS V14.01,2013-07-03 20:32:00,
2013-07-03 13:38:00,89.6,57.5,29.84,South,169,1.0,8.0,34,0.00,,---,0.00,912.00,VWS V14.01,2013-07-03 20:38:00,
2013-07-03 13:43:00,90.2,56.4,29.84,South,178,3.0,8.0,32,0.00,,---,0.00,914.00,VWS V14.01,2013-07-03 20:43:00,
2013-07-03 13:48:00,90.7,55.9,29.83,South,190,5.0,9.0,31,0.00,,---,0.00,907.00,VWS V14.01,2013-07-03 20:48:00,
2013-07-03 13:53:00,90.9,56.1,29.83,West,279,0.0,9.0,31,0.00,,---,0.00,909.00,VWS V14.01,2013-07-03 20:53:00,
2013-07-03 13:58:00,91.3,55.5,29.83,SSW,209,6.0,12.0,30,0.00,,---,0.00,907.00,VWS V14.01,2013-07-03 20:58:00,
2013-07-03 14:03:00,91.6,55.8,29.83,ESE,115,3.0,8.0,30,0.00,,---,0.00,898.00,VWS V14.01,2013-07-03 21:03:00,
2013-07-03 14:08:00,91.8,56.0,29.83,SW,236,3.0,11.0,30,0.00,,---,0.00,891.00,VWS V14.01,2013-07-03 21:08:00,
2013-07-03 14:13:00,91.9,56.1,29.83,SSW,213,2.0,11.0,30,0.00,,---,0.00,888.00,VWS V14.01,2013-07-03 21:13:00,
2013-07-03 14:18:00,91.9,57.0,29.83,WSW,239,4.0,11.0,31,0.00,,---,0.00,886.00,VWS V14.01,2013-07-03 21:18:00,
2013-07-03 14:23:00,92.1,54.3,29.83,SSW,205,2.0,11.0,28,0.00,,---,0.00,882.00,VWS V14.01,2013-07-03 21:23:00,
2013-07-03 14:28:00,92.0,55.2,29.83,South,177,2.0,11.0,29,0.00,,---,0.00,884.00,VWS V14.01,2013-07-03 21:28:00,
2013-07-03 14:33:00,92.0,54.3,29.83,West,261,5.0,11.0,28,0.00,,---,0.00,877.00,VWS V14.01,2013-07-03 21:33:00,
2013-07-03 14:38:00,91.1,54.5,29.84,SSE,157,3.0,12.0,29,0.00,,---,0.00,872.00,VWS V14.01,2013-07-03 21:38:00,
2013-07-03 14:43:00,91.3,54.6,29.84,SW,223,4.0,12.0,29,0.00,,---,0.00,863.00,VWS V14.01,2013-07-03 21:43:00,
2013-07-03 14:48:00,91.2,53.6,29.84,West,263,4.0,12.0,28,0.00,,---,0.00,860.00,VWS V14.01,2013-07-03 21:48:00,
2013-07-03 14:53:00,91.3,57.3,29.84,East,87,5.0,12.0,32,0.00,,---,0.00,854.00,VWS V14.01,2013-07-03 21:53:00,
2013-07-03 14:58:00,91.7,55.0,29.84,SSW,196,7.0,12.0,29,0.00,,---,0.00,847.00,VWS V14.01,2013-07-03 21:58:00,
2013-07-03 15:04:00,91.5,52.8,29.84,SSW,200,4.0,10.0,27,0.00,,---,0.00,838.00,VWS V14.01,2013-07-03 22:04:00,
2013-07-03 15:09:00,90.9,54.3,29.84,SSE,162,5.0,10.0,29,0.00,,---,0.00,835.00,VWS V14.01,2013-07-03 22:09:00,
2013-07-03 15:14:00,91.4,56.5,29.84,SW,217,6.0,12.0,31,0.00,,---,0.00,823.00,VWS V14.01,2013-07-03 22:14:00,
2013-07-03 15:19:00,91.9,57.0,29.83,SSW,200,3.0,12.0,31,0.00,,---,0.00,814.00,VWS V14.01,2013-07-03 22:19:00,
2013-07-03 15:24:00,92.5,56.6,29.83,SSW,197,4.0,12.0,30,0.00,,---,0.00,803.00,VWS V14.01,2013-07-03 22:24:00,
2013-07-03 15:29:00,92.6,55.7,29.83,South,182,2.0,12.0,29,0.00,,---,0.00,798.00,VWS V14.01,2013-07-03 22:29:00,
2013-07-03 15:34:00,92.6,55.7,29.83,SSW,201,8.0,10.0,29,0.00,,---,0.00,789.00,VWS V14.01,2013-07-03 22:34:00,
2013-07-03 15:39:00,91.7,55.0,29.83,SSE,163,8.0,10.0,29,0.00,,---,0.00,779.00,VWS V14.01,2013-07-03 22:39:00,
2013-07-03 15:44:00,90.9,56.1,29.83,SSE,161,8.0,10.0,31,0.00,,---,0.00,765.00,VWS V14.01,2013-07-03 22:44:00,
2013-07-03 15:49:00,90.2,54.6,29.83,SSW,195,4.0,11.0,30,0.00,,---,0.00,759.00,VWS V14.01,2013-07-03 22:49:00,
2013-07-03 15:54:00,90.4,55.7,29.83,South,178,3.0,13.0,31,0.00,,---,0.00,749.00,VWS V14.01,2013-07-03 22:54:00,
2013-07-03 15:59:00,91.0,54.4,29.83,SSW,194,2.0,13.0,29,0.00,,---,0.00,738.00,VWS V14.01,2013-07-03 22:59:00,
2013-07-03 16:04:00,91.4,54.7,29.83,South,170,4.0,11.0,29,0.00,,---,0.00,729.00,VWS V14.01,2013-07-03 23:04:00,
2013-07-03 16:09:00,91.4,54.7,29.82,South,188,4.0,11.0,29,0.00,,---,0.00,715.00,VWS V14.01,2013-07-03 23:09:00,
2013-07-03 16:14:00,91.5,53.8,29.83,SW,234,6.0,11.0,28,0.00,,---,0.00,705.00,VWS V14.01,2013-07-03 23:14:00,
2013-07-03 16:20:00,90.8,55.1,29.82,SSE,148,10.0,13.0,30,0.00,,---,0.00,696.00,VWS V14.01,2013-07-03 23:20:00,
2013-07-03 16:25:00,90.4,53.8,29.83,SSE,148,5.0,13.0,29,0.00,,---,0.00,684.00,VWS V14.01,2013-07-03 23:25:00,
2013-07-03 16:30:00,90.2,52.7,29.82,SE,129,7.0,13.0,28,0.00,,---,0.00,671.00,VWS V14.01,2013-07-03 23:30:00,
2013-07-03 16:35:00,90.4,52.9,29.82,SSW,201,1.0,8.0,28,0.00,,---,0.00,657.00,VWS V14.01,2013-07-03 23:35:00,
2013-07-03 16:40:00,90.7,54.1,29.82,SSW,209,3.0,13.0,29,0.00,,---,0.00,643.00,VWS V14.01,2013-07-03 23:40:00,
2013-07-03 16:45:00,90.7,54.1,29.82,SSW,200,3.0,13.0,29,0.00,,---,0.00,631.00,VWS V14.01,2013-07-03 23:45:00,
2013-07-03 16:50:00,89.5,52.1,29.82,SW,217,3.0,13.0,28,0.00,,---,0.00,617.00,VWS V14.01,2013-07-03 23:50:00,
2013-07-03 16:55:00,89.7,52.3,29.82,SW,219,7.0,13.0,28,0.00,,---,0.00,606.00,VWS V14.01,2013-07-03 23:55:00,
2013-07-03 17:00:00,89.8,53.3,29.82,South,189,9.0,13.0,29,0.00,,---,0.00,592.00,VWS V14.01,2013-07-04 00:00:00,
2013-07-03 17:05:00,89.2,50.9,29.82,SSW,192,4.0,12.0,27,0.00,,---,0.00,578.00,VWS V14.01,2013-07-04 00:05:00,
2013-07-03 17:10:00,88.9,51.6,29.82,South,183,5.0,12.0,28,0.00,,---,0.00,566.00,VWS V14.01,2013-07-04 00:10:00,
2013-07-03 17:15:00,88.5,51.3,29.82,South,178,2.0,12.0,28,0.00,,---,0.00,552.00,VWS V14.01,2013-07-04 00:15:00,
2013-07-03 17:20:00,89.1,52.7,29.81,SSW,211,7.0,12.0,29,0.00,,---,0.00,538.00,VWS V14.01,2013-07-04 00:20:00,
2013-07-03 17:25:00,88.8,51.5,29.81,SW,228,7.0,13.0,28,0.00,,---,0.00,524.00,VWS V14.01,2013-07-04 00:25:00,
2013-07-03 17:30:00,88.7,51.4,29.81,SE,142,12.0,13.0,28,0.00,,---,0.00,512.00,VWS V14.01,2013-07-04 00:30:00,
2013-07-03 17:35:00,89.0,52.7,29.82,SSW,213,6.0,13.0,29,0.00,,---,0.00,499.00,VWS V14.01,2013-07-04 00:35:00,
2013-07-03 17:40:00,89.4,52.0,29.81,West,277,5.0,13.0,28,0.00,,---,0.00,485.00,VWS V14.01,2013-07-04 00:40:00,
2013-07-03 17:45:00,89.3,52.0,29.81,SE,143,4.0,13.0,28,0.00,,---,0.00,469.00,VWS V14.01,2013-07-04 00:45:00,
2013-07-03 17:50:00,89.2,52.8,29.82,SE,142,5.0,13.0,29,0.00,,---,0.00,454.00,VWS V14.01,2013-07-04 00:50:00,
2013-07-03 17:55:00,88.4,51.2,29.82,SSW,208,6.0,13.0,28,0.00,,---,0.00,439.00,VWS V14.01,2013-07-04 00:55:00,
2013-07-03 18:00:00,88.0,52.7,29.82,South,178,3.0,13.0,30,0.00,,---,0.00,425.00,VWS V14.01,2013-07-04 01:00:00,
2013-07-03 18:05:00,88.1,51.9,29.82,South,173,9.0,11.0,29,0.00,,---,0.00,410.00,VWS V14.01,2013-07-04 01:05:00,
2013-07-03 18:11:00,88.2,51.0,29.82,SW,219,2.0,11.0,28,0.00,,---,0.00,397.00,VWS V14.01,2013-07-04 01:11:00,
2013-07-03 18:16:00,87.7,51.5,29.83,SSE,156,6.0,11.0,29,0.00,,---,0.00,383.00,VWS V14.01,2013-07-04 01:16:00,
2013-07-03 18:21:00,87.9,52.6,29.83,SE,132,6.0,11.0,30,0.00,,---,0.00,373.00,VWS V14.01,2013-07-04 01:21:00,
2013-07-03 18:26:00,88.3,51.1,29.83,SSE,148,4.0,11.0,28,0.00,,---,0.00,367.00,VWS V14.01,2013-07-04 01:26:00,
2013-07-03 18:31:00,88.4,51.2,29.83,SW,231,6.0,10.0,28,0.00,,---,0.00,366.00,VWS V14.01,2013-07-04 01:31:00,
2013-07-03 18:36:00,86.8,50.8,29.83,SSW,200,2.0,11.0,29,0.00,,---,0.00,369.00,VWS V14.01,2013-07-04 01:36:00,
2013-07-03 18:41:00,85.9,50.0,29.83,SW,225,6.0,11.0,29,0.00,,---,0.00,367.00,VWS V14.01,2013-07-04 01:41:00,
2013-07-03 18:46:00,85.1,50.2,29.83,SSE,161,10.0,11.0,30,0.00,,---,0.00,302.00,VWS V14.01,2013-07-04 01:46:00,
2013-07-03 18:51:00,84.6,50.7,29.83,SSW,193,6.0,11.0,31,0.00,,---,0.00,338.00,VWS V14.01,2013-07-04 01:51:00,
2013-07-03 18:56:00,84.6,50.7,29.83,SSE,153,8.0,12.0,31,0.00,,---,0.00,364.00,VWS V14.01,2013-07-04 01:56:00,
2013-07-03 19:02:00,84.9,50.9,29.83,South,180,3.0,11.0,31,0.00,,---,0.00,343.00,VWS V14.01,2013-07-04 02:02:00,
2013-07-03 19:07:00,85.4,50.5,29.83,SSE,159,8.0,11.0,30,0.00,,---,0.00,320.00,VWS V14.01,2013-07-04 02:07:00,
2013-07-03 19:12:00,85.7,49.8,29.84,SSW,207,7.0,11.0,29,0.00,,---,0.00,302.00,VWS V14.01,2013-07-04 02:12:00,
2013-07-03 19:17:00,85.0,49.2,29.84,SW,221,2.0,13.0,29,0.00,,---,0.00,287.00,VWS V14.01,2013-07-04 02:17:00,
2013-07-03 19:22:00,84.2,48.5,29.84,SSE,167,4.0,14.0,29,0.00,,---,0.00,272.00,VWS V14.01,2013-07-04 02:22:00,
2013-07-03 19:27:00,83.7,49.0,29.84,South,184,4.0,14.0,30,0.00,,---,0.00,251.00,VWS V14.01,2013-07-04 02:27:00,
2013-07-03 19:32:00,83.9,48.3,29.84,SW,216,5.0,8.0,29,0.00,,---,0.00,225.00,VWS V14.01,2013-07-04 02:32:00,
2013-07-03 19:37:00,83.6,48.9,29.84,South,184,5.0,8.0,30,0.00,,---,0.00,200.00,VWS V14.01,2013-07-04 02:37:00,
2013-07-03 19:42:00,84.0,48.4,29.84,South,184,7.0,8.0,29,0.00,,---,0.00,179.00,VWS V14.01,2013-07-04 02:42:00,
2013-07-03 19:47:00,84.2,48.5,29.84,South,186,2.0,8.0,29,0.00,,---,0.00,162.00,VWS V14.01,2013-07-04 02:47:00,
2013-07-03 19:52:00,83.8,48.2,29.84,SSE,163,2.0,8.0,29,0.00,,---,0.00,144.00,VWS V14.01,2013-07-04 02:52:00,
2013-07-03 19:57:00,83.4,47.8,29.84,SSE,165,1.0,8.0,29,0.00,,---,0.00,130.00,VWS V14.01,2013-07-04 02:57:00,
2013-07-03 20:02:00,82.7,45.3,29.85,SE,142,2.0,8.0,27,0.00,,---,0.00,113.00,VWS V14.01,2013-07-04 03:02:00,
2013-07-03 20:07:00,82.1,47.6,29.85,SE,146,3.0,8.0,30,0.00,,---,0.00,86.00,VWS V14.01,2013-07-04 03:07:00,
2013-07-03 20:12:00,81.5,45.3,29.85,SSE,154,5.0,8.0,28,0.00,,---,0.00,74.00,VWS V14.01,2013-07-04 03:12:00,
2013-07-03 20:17:00,80.6,44.5,29.85,South,181,0.0,8.0,28,0.00,,---,0.00,58.00,VWS V14.01,2013-07-04 03:17:00,
2013-07-03 20:22:00,80.2,44.2,29.85,SSE,162,0.0,8.0,28,0.00,,---,0.00,46.00,VWS V14.01,2013-07-04 03:22:00,
2013-07-03 20:27:00,79.7,45.6,29.86,South,173,2.0,8.0,30,0.00,,---,0.00,37.00,VWS V14.01,2013-07-04 03:27:00,
2013-07-03 20:32:00,79.2,44.2,29.86,SSE,152,1.0,3.0,29,0.00,,---,0.00,30.00,VWS V14.01,2013-07-04 03:32:00,
2013-07-03 20:37:00,78.7,43.8,29.86,SSE,148,7.0,7.0,29,0.00,,---,0.00,23.00,VWS V14.01,2013-07-04 03:37:00,
2013-07-03 20:42:00,78.2,44.3,29.86,SSE,155,6.0,7.0,30,0.00,,---,0.00,16.00,VWS V14.01,2013-07-04 03:42:00,
2013-07-03 20:47:00,77.8,43.9,29.86,SW,225,1.0,7.0,30,0.00,,---,0.00,14.00,VWS V14.01,2013-07-04 03:47:00,
2013-07-03 20:52:00,77.3,43.5,29.86,SSW,199,2.0,7.0,30,0.00,,---,0.00,11.00,VWS V14.01,2013-07-04 03:52:00,
2013-07-03 20:57:00,76.9,43.1,29.86,South,171,0.0,7.0,30,0.00,,---,0.00,5.00,VWS V14.01,2013-07-04 03:57:00,
2013-07-03 21:01:00,76.6,42.9,29.86,WSW,250,1.0,1.0,30,0.00,,---,0.00,5.00,VWS V14.01,2013-07-04 04:01:00,
2013-07-03 21:06:00,76.2,43.4,29.86,WSW,244,1.0,4.0,31,0.00,,---,0.00,5.00,VWS V14.01,2013-07-04 04:06:00,
2013-07-03 21:11:00,75.8,43.9,29.86,SSW,211,1.0,4.0,32,0.00,,---,0.00,0.00,VWS V14.01,2013-07-04 04:11:00,
2013-07-03 21:16:00,75.5,43.6,29.86,SW,232,1.0,4.0,32,0.00,,---,0.00,0.00,VWS V14.01,2013-07-04 04:16:00,
2013-07-03 21:21:00,75.1,43.3,29.86,SSW,203,0.0,4.0,32,0.00,,---,0.00,0.00,VWS V14.01,2013-07-04 04:21:00,
2013-07-03 21:26:00,74.8,43.0,29.87,SW,226,2.0,5.0,32,0.00,,---,0.00,0.00,VWS V14.01,2013-07-04 04:26:00,
2013-07-03 21:31:00,74.6,43.6,29.87,SSE,159,0.0,0.0,33,0.00,,---,0.00,0.00,VWS V14.01,2013-07-04 04:31:00,
2013-07-03 21:36:00,74.4,43.5,29.87,South,178,1.0,3.0,33,0.00,,---,0.00,0.00,VWS V14.01,2013-07-04 04:36:00,
2013-07-03 21:41:00,74.1,44.0,29.87,SSW,203,1.0,4.0,34,0.00,,---,0.00,0.00,VWS V14.01,2013-07-04 04:41:00,
2013-07-03 21:46:00,73.9,45.3,29.87,South,171,0.0,4.0,36,0.00,,---,0.00,0.00,VWS V14.01,2013-07-04 04:46:00,
2013-07-03 21:51:00,73.2,43.9,29.88,SSE,166,0.0,4.0,35,0.00,,---,0.00,0.00,VWS V14.01,2013-07-04 04:51:00,
2013-07-03 21:56:00,72.8,43.6,29.88,SW,232,1.0,4.0,35,0.00,,---,0.00,0.00,VWS V14.01,2013-07-04 04:56:00,
2013-07-03 22:01:00,72.5,44.8,29.88,SW,223,0.0,1.0,37,0.00,,---,0.00,0.00,VWS V14.01,2013-07-04 05:01:00,
2013-07-03 22:06:00,72.2,45.9,29.88,WSW,247,1.0,4.0,39,0.00,,---,0.00,0.00,VWS V14.01,2013-07-04 05:06:00,
2013-07-03 22:11:00,71.8,46.2,29.88,SW,233,0.0,4.0,40,0.00,,---,0.00,0.00,VWS V14.01,2013-07-04 05:11:00,
2013-07-03 22:16:00,71.5,46.6,29.88,SW,230,0.0,4.0,41,0.00,,---,0.00,0.00,VWS V14.01,2013-07-04 05:16:00,
2013-07-03 22:21:00,71.3,46.4,29.88,SW,223,0.0,4.0,41,0.00,,---,0.00,0.00,VWS V14.01,2013-07-04 05:21:00,
2013-07-03 22:26:00,71.0,46.8,29.88,SW,223,0.0,4.0,42,0.00,,---,0.00,0.00,VWS V14.01,2013-07-04 05:26:00,
2013-07-03 22:31:00,70.7,47.1,29.88,SW,230,2.0,3.0,43,0.00,,---,0.00,0.00,VWS V14.01,2013-07-04 05:31:00,
2013-07-03 22:36:00,70.4,47.5,29.88,WSW,248,2.0,5.0,44,0.00,,---,0.00,0.00,VWS V14.01,2013-07-04 05:36:00,
2013-07-03 22:41:00,70.2,47.9,29.88,WSW,239,0.0,5.0,45,0.00,,---,0.00,0.00,VWS V14.01,2013-07-04 05:41:00,
2013-07-03 22:46:00,69.9,47.6,29.89,WSW,239,0.0,5.0,45,0.00,,---,0.00,0.00,VWS V14.01,2013-07-04 05:46:00,
2013-07-03 22:51:00,69.5,47.2,29.88,West,269,0.0,5.0,45,0.00,,---,0.00,0.00,VWS V14.01,2013-07-04 05:51:00,
2013-07-03 22:56:00,68.9,47.9,29.88,WSW,249,3.0,5.0,47,0.00,,---,0.00,0.00,VWS V14.01,2013-07-04 05:56:00,
2013-07-03 23:01:00,68.6,47.6,29.88,WSW,238,1.0,2.0,47,0.00,,---,0.00,0.00,VWS V14.01,2013-07-04 06:01:00,
2013-07-03 23:06:00,68.6,48.2,29.88,SW,229,3.0,3.0,48,0.00,,---,0.00,0.00,VWS V14.01,2013-07-04 06:06:00,
2013-07-03 23:11:00,68.4,48.5,29.88,WSW,254,4.0,4.0,49,0.00,,---,0.00,0.00,VWS V14.01,2013-07-04 06:11:00,
2013-07-03 23:16:00,68.2,48.9,29.88,SW,231,2.0,4.0,50,0.00,,---,0.00,0.00,VWS V14.01,2013-07-04 06:16:00,
2013-07-03 23:21:00,68.0,48.7,29.88,SW,230,3.0,4.0,50,0.00,,---,0.00,0.00,VWS V14.01,2013-07-04 06:21:00,
2013-07-03 23:26:00,67.7,48.4,29.88,SW,225,3.0,4.0,50,0.00,,---,0.00,0.00,VWS V14.01,2013-07-04 06:26:00,
2013-07-03 23:31:00,67.5,48.8,29.88,SW,223,0.0,0.0,51,0.00,,---,0.00,0.00,VWS V14.01,2013-07-04 06:31:00,
2013-07-03 23:36:00,67.3,48.6,29.88,West,266,0.0,1.0,51,0.00,,---,0.00,0.00,VWS V14.01,2013-07-04 06:36:00,
2013-07-03 23:41:00,67.1,48.4,29.89,West,266,0.0,1.0,51,0.00,,---,0.00,0.00,VWS V14.01,2013-07-04 06:41:00,
2013-07-03 23:46:00,66.7,48.5,29.88,SW,231,0.0,2.0,52,0.00,,---,0.00,0.00,VWS V14.01,2013-07-04 06:46:00,
2013-07-03 23:51:00,66.3,48.7,29.88,SW,231,1.0,2.0,53,0.00,,---,0.00,0.00,VWS V14.01,2013-07-04 06:51:00,
2013-07-03 23:56:00,66.0,48.9,29.88,SW,231,1.0,2.0,54,0.00,,---,0.00,0.00,VWS V14.01,2013-07-04 06:56:00,